| time (UTC) | temp F | wind direction | speed knots | gust knots | rain 1hr in | rain 24hr in | rain mn in | humidity % | barometer mb |
| 20260509201014 | 59 | 284 | 6.1 | 7.8 | 0.00 | 0.16 | 0.16 | 30 | 996.8 |
| 20260509200518 | 59 | 353 | 4.3 | 7.8 | 0.00 | 0.16 | 0.16 | 29 | 996.8 |
| 20260509200013 | 59 | 291 | 3.5 | 6.1 | 0.00 | 0.16 | 0.16 | 29 | 996.8 |
| 20260509195513 | 59 | 2 | 4.3 | 7.8 | 0.00 | 0.16 | 0.16 | 29 | 996.8 |
| 20260509195015 | 59 | 321 | 2.6 | 4.3 | 0.00 | 0.16 | 0.16 | 29 | 996.8 |
| 20260509194515 | 59 | 350 | 3.5 | 6.1 | 0.00 | 0.16 | 0.16 | 29 | 997.8 |
| 20260509194014 | 59 | 12 | 2.6 | 2.6 | 0.00 | 0.16 | 0.16 | 29 | 997.8 |
| 20260509193014 | 60 | 49 | 4.3 | 4.3 | 0.00 | 0.16 | 0.16 | 28 | 997.8 |
| 20260509192518 | 60 | 308 | 5.2 | 7.0 | 0.00 | 0.16 | 0.16 | 27 | 997.8 |
| 20260509192014 | 60 | 357 | 4.3 | 4.3 | 0.00 | 0.16 | 0.16 | 26 | 997.8 |
| 20260509191514 | 60 | 319 | 4.3 | 4.3 | 0.00 | 0.16 | 0.16 | 25 | 997.8 |
| 20260509191014 | 60 | 333 | 4.3 | 4.3 | 0.00 | 0.16 | 0.16 | 25 | 997.8 |
| 20260509190518 | 60 | 296 | 4.3 | 4.3 | 0.00 | 0.16 | 0.16 | 25 | 997.8 |
| 20260509190014 | 60 | 324 | 4.3 | 4.3 | 0.00 | 0.16 | 0.16 | 25 | 998.8 |
| 20260509185513 | 60 | 6 | 4.3 | 7.8 | 0.00 | 0.16 | 0.16 | 25 | 998.8 |
| 20260509185014 | 60 | 0 | 3.5 | 6.1 | 0.00 | 0.16 | 0.16 | 25 | 998.8 |
| 20260509184518 | 60 | 357 | 2.6 | 2.6 | 0.00 | 0.16 | 0.16 | 24 | 998.8 |
| 20260509184015 | 60 | 299 | 4.3 | 7.0 | 0.00 | 0.16 | 0.16 | 24 | 998.8 |
| 20260509183516 | 61 | 300 | 3.5 | 3.5 | 0.00 | 0.16 | 0.16 | 24 | 998.8 |
| 20260509183015 | 61 | 327 | 2.6 | 2.6 | 0.00 | 0.16 | 0.16 | 22 | 998.8 |
| 20260509182515 | 61 | 10 | 4.3 | 6.1 | 0.00 | 0.16 | 0.16 | 22 | 998.8 |
| 20260509182015 | 61 | 353 | 2.6 | 8.7 | 0.00 | 0.16 | 0.16 | 21 | 998.8 |
| 20260509181514 | 61 | 298 | 5.2 | 5.2 | 0.00 | 0.16 | 0.16 | 19 | 998.8 |
| 20260509181013 | 61 | 297 | 4.3 | 6.1 | 0.00 | 0.16 | 0.16 | 19 | 998.8 |
| 20260509180518 | 61 | 342 | 2.6 | 4.3 | 0.00 | 0.16 | 0.16 | 19 | 998.8 |
| 20260509180013 | 61 | 16 | 4.3 | 4.3 | 0.00 | 0.16 | 0.16 | 19 | 998.8 |
| 20260509175513 | 61 | 330 | 2.6 | 2.6 | 0.00 | 0.16 | 0.16 | 16 | 998.8 |
| 20260509175017 | 61 | 316 | 3.5 | 4.3 | 0.00 | 0.16 | 0.16 | 16 | 998.8 |
| 20260509174519 | 61 | 319 | 6.1 | 7.0 | 0.00 | 0.16 | 0.16 | 16 | 999.8 |
| 20260509174016 | 61 | 313 | 4.3 | 5.2 | 0.00 | 0.16 | 0.16 | 14 | 999.8 |
| 20260509173557 | 61 | 24 | 2.6 | 3.5 | 0.00 | 0.16 | 0.16 | 14 | 999.8 |
| 20260509173514 | 61 | 24 | 2.6 | 3.5 | 0.00 | 0.16 | 0.16 | 14 | 999.8 |
| 20260509173016 | 61 | 338 | 4.3 | 6.1 | 0.00 | 0.16 | 0.16 | 14 | 999.8 |
| 20260509172518 | 62 | 312 | 4.3 | 5.2 | 0.00 | 0.16 | 0.16 | 14 | 999.8 |
| 20260509172015 | 62 | 4 | 3.5 | 7.0 | 0.00 | 0.16 | 0.16 | 11 | 999.8 |
| 20260509171514 | 62 | 298 | 6.1 | 6.1 | 0.00 | 0.16 | 0.16 | 11 | 999.8 |
| 20260509171014 | 62 | 345 | 4.3 | 6.1 | 0.00 | 0.16 | 0.16 | 11 | 999.8 |
| 20260509170515 | 62 | 7 | 4.3 | 6.1 | 0.00 | 0.16 | 0.16 | 11 | 999.8 |
| 20260509170014 | 62 | 308 | 7.8 | 8.7 | 0.00 | 0.16 | 0.16 | 11 | 999.8 |
| 20260509165514 | 63 | 353 | 4.3 | 7.8 | 0.00 | 0.16 | 0.16 | 11 | 999.8 |
| 20260509165014 | 63 | 335 | 5.2 | 5.2 | 0.00 | 0.16 | 0.16 | 8 | 999.8 |
| 20260509164516 | 63 | 331 | 4.3 | 6.1 | 0.00 | 0.16 | 0.16 | 8 | 999.8 |
| 20260509164013 | 63 | 304 | 4.3 | 7.0 | 0.00 | 0.16 | 0.16 | 8 | 999.8 |
| 20260509163515 | 63 | 297 | 7.8 | 7.8 | 0.00 | 0.16 | 0.16 | 8 | 999.8 |
| 20260509163014 | 63 | 280 | 3.5 | 6.1 | 0.00 | 0.16 | 0.16 | 8 | 999.8 |
| 20260509162515 | 63 | 299 | 4.3 | 4.3 | 0.00 | 0.16 | 0.16 | 8 | 999.8 |
| 20260509162014 | 63 | 263 | 2.6 | 4.3 | 0.00 | 0.16 | 0.16 | 8 | 999.8 |
| 20260509161514 | 63 | 289 | 5.2 | 6.1 | 0.00 | 0.16 | 0.16 | 8 | 999.8 |
| 20260509161013 | 63 | 293 | 4.3 | 4.3 | 0.00 | 0.16 | 0.16 | 8 | 999.8 |
| 20260509160514 | 63 | 275 | 3.5 | 7.0 | 0.00 | 0.16 | 0.16 | 8 | 999.8 |
| 20260509160013 | 63 | 311 | 6.1 | 8.7 | 0.00 | 0.16 | 0.16 | 8 | 999.8 |
| 20260509155515 | 63 | 226 | 2.6 | 7.8 | 0.00 | 0.16 | 0.16 | 8 | 999.8 |
| 20260509155016 | 63 | 207 | 4.3 | 6.1 | 0.00 | 0.16 | 0.16 | 8 | 999.8 |
| 20260509154514 | 63 | 286 | 4.3 | 4.3 | 0.00 | 0.16 | 0.16 | 8 | 999.8 |
| 20260509154014 | 63 | 287 | 4.3 | 6.1 | 0.00 | 0.16 | 0.16 | 8 | 999.8 |
| 20260509153514 | 63 | 277 | 2.6 | 4.3 | 0.00 | 0.16 | 0.16 | 8 | 999.8 |
| 20260509153014 | 63 | 230 | 7.8 | 7.8 | 0.00 | 0.16 | 0.16 | 8 | 999.8 |
| 20260509152513 | 64 | 279 | 4.3 | 6.1 | 0.00 | 0.16 | 0.16 | 8 | 999.8 |
| 20260509151515 | 64 | 303 | 4.3 | 4.3 | 0.00 | 0.16 | 0.16 | 8 | 999.8 |
| 20260509151015 | 64 | 270 | 3.5 | 4.3 | 0.00 | 0.16 | 0.16 | 8 | 999.8 |
| 20260509150515 | 64 | 285 | 4.3 | 4.3 | 0.00 | 0.16 | 0.16 | 8 | 999.8 |
| 20260509150014 | 65 | 286 | 4.3 | 7.0 | 0.00 | 0.16 | 0.16 | 8 | 999.8 |
| 20260509145514 | 65 | 278 | 2.6 | 5.2 | 0.00 | 0.16 | 0.16 | 8 | 999.8 |
| 20260509145014 | 65 | 264 | 8.7 | 8.7 | 0.00 | 0.16 | 0.16 | 8 | 999.8 |
| 20260509144514 | 65 | 271 | 4.3 | 6.1 | 0.00 | 0.16 | 0.16 | 8 | 999.8 |
| 20260509144016 | 65 | 229 | 6.1 | 6.1 | 0.00 | 0.16 | 0.16 | 8 | 999.8 |
| 20260509143514 | 65 | 272 | 4.3 | 4.3 | 0.00 | 0.16 | 0.16 | 8 | 999.8 |
| 20260509143017 | 65 | 298 | 4.3 | 4.3 | 0.00 | 0.16 | 0.16 | 8 | 999.8 |
| 20260509142516 | 66 | 275 | 4.3 | 4.3 | 0.00 | 0.16 | 0.16 | 8 | 999.8 |
| 20260509142014 | 66 | 289 | 2.6 | 4.3 | 0.00 | 0.16 | 0.16 | 8 | 999.8 |
| 20260509141513 | 66 | 286 | 4.3 | 6.1 | 0.00 | 0.16 | 0.16 | 8 | 999.8 |
| 20260509141016 | 66 | 301 | 7.0 | 7.0 | 0.00 | 0.16 | 0.16 | 7 | 999.8 |
| 20260509140517 | 67 | 286 | 2.6 | 4.3 | 0.00 | 0.16 | 0.16 | 7 | 999.8 |
| 20260509140014 | 67 | 283 | 6.1 | 6.1 | 0.00 | 0.16 | 0.16 | 7 | 999.8 |
| 20260509135514 | 67 | 310 | 6.1 | 7.8 | 0.00 | 0.16 | 0.16 | 7 | 999.8 |
| 20260509135015 | 68 | 264 | 6.1 | 7.0 | 0.00 | 0.16 | 0.16 | 7 | 999.8 |
| 20260509134515 | 68 | 271 | 6.1 | 6.1 | 0.00 | 0.16 | 0.16 | 7 | 999.8 |
| 20260509134016 | 68 | 245 | 7.0 | 7.0 | 0.00 | 0.16 | 0.16 | 7 | 999.8 |
| 20260509133514 | 68 | 297 | 2.6 | 4.3 | 0.00 | 0.16 | 0.16 | 7 | 999.8 |
| 20260509133015 | 68 | 265 | 4.3 | 4.3 | 0.00 | 0.16 | 0.16 | 7 | 999.8 |
| 20260509132514 | 68 | 256 | 4.3 | 7.8 | 0.00 | 0.16 | 0.16 | 7 | 999.8 |
| 20260509132016 | 68 | 308 | 9.6 | 9.6 | 0.00 | 0.16 | 0.16 | 7 | 999.8 |
| 20260509131514 | 68 | 268 | 4.3 | 7.0 | 0.00 | 0.16 | 0.16 | 7 | 999.8 |
| 20260509131014 | 68 | 303 | 3.5 | 7.8 | 0.00 | 0.16 | 0.16 | 7 | 999.8 |
| 20260509130514 | 68 | 297 | 6.1 | 6.1 | 0.00 | 0.16 | 0.16 | 7 | 999.8 |
| 20260509130015 | 68 | 272 | 4.3 | 6.1 | 0.00 | 0.16 | 0.16 | 7 | 1000.8 |
| 20260509125514 | 68 | 240 | 4.3 | 4.3 | 0.00 | 0.16 | 0.16 | 7 | 1000.8 |
| 20260509125014 | 68 | 310 | 4.3 | 6.1 | 0.00 | 0.16 | 0.16 | 7 | 1000.8 |
| 20260509124513 | 69 | 280 | 3.5 | 4.3 | 0.00 | 0.16 | 0.16 | 10 | 1000.8 |
| 20260509124015 | 69 | 313 | 1.7 | 7.0 | 0.00 | 0.16 | 0.16 | 10 | 1000.8 |
| 20260509123515 | 69 | 266 | 4.3 | 6.1 | 0.00 | 0.16 | 0.16 | 10 | 1000.8 |
| 20260509123018 | 69 | 266 | 2.6 | 3.5 | 0.00 | 0.16 | 0.16 | 10 | 1000.8 |
| 20260509122514 | 69 | 286 | 7.0 | 10.4 | 0.00 | 0.16 | 0.16 | 10 | 1000.8 |
| 20260509122014 | 68 | 311 | 4.3 | 6.1 | 0.00 | 0.16 | 0.16 | 10 | 1000.8 |
| 20260509121513 | 68 | 292 | 4.3 | 7.0 | 0.00 | 0.16 | 0.16 | 10 | 1001.8 |
| 20260509121013 | 67 | 281 | 4.3 | 7.8 | 0.00 | 0.16 | 0.16 | 7 | 1001.8 |
| 20260509120515 | 67 | 314 | 4.3 | 6.1 | 0.00 | 0.16 | 0.16 | 7 | 1001.8 |
| 20260509120015 | 67 | 315 | 8.7 | 9.6 | 0.16 | 0.16 | 0.16 | 7 | 1001.8 |
| 20260509115514 | 67 | 253 | 6.1 | 7.8 | 0.16 | 0.16 | 0.16 | 10 | 1001.8 |
| 20260509115016 | 68 | 287 | 5.2 | 7.0 | 0.16 | 0.16 | 0.16 | 10 | 1001.8 |
| 20260509114514 | 68 | 312 | 7.0 | 7.0 | 0.16 | 0.16 | 0.16 | 10 | 1001.8 |
| 20260509114014 | 68 | 292 | 8.7 | 8.7 | 0.16 | 0.16 | 0.16 | 10 | 1001.8 |
| 20260509113514 | 68 | 278 | 6.1 | 9.6 | 0.16 | 0.16 | 0.16 | 10 | 1001.8 |
| 20260509113016 | 67 | 295 | 12.2 | 12.2 | 0.16 | 0.16 | 0.16 | 10 | 1002.8 |
| 20260509112514 | 67 | 293 | 4.3 | 6.1 | 0.16 | 0.16 | 0.16 | 10 | 1002.8 |
| 20260509112007 | 67 | 299 | 4.3 | 11.3 | 0.16 | 0.16 | 0.16 | 10 | 1002.8 |